This demonstration page uses our WeatherBlox Daily Observations layout. Learn more.

Hourly Observations for July 30, 2016

Temp ( °F °C ) Dew Point ( °F °C ) Humidity (%) Winds ( mph kmh ) Pressure ( in mb ) Visibility ( mi km ) Precip ( " mm )
12:15 am 00:15 Clear 66 19 63 17.4 91 91 SE 7 11 30 1016 10 16.0934 0 0
12:35 am 00:35 Clear 66 18.8 63 17.2 90 90 ESE 5 7 30 1016 10 16.0934 0 0
12:55 am 00:55 Clear 66 19 63 17.2 89 89 ESE 6 9 30 1016 10 16.0934 0 0
1:15 am 01:15 Clear 66 18.7 63 17 90 90 SE 5 7 30 1016 10 16.0934 0 0
1:35 am 01:35 Partly Cloudy 65 18.5 62 16.9 90 90 ESE 6 9 30 1016 10 16.0934 0 0
1:55 am 01:55 Mostly Cloudy 65 18.6 62 16.9 90 90 SE 7 11 30 1016 10 16.0934 0 0
2:15 am 02:15 Mostly Cloudy 65 18.6 62 16.6 88 88 SSE 7 11 30 1016 10 16.0934 0 0
2:35 am 02:35 Partly Cloudy 65 18.4 61 16.3 88 88 SE 6 9 29.97 1015 10 16.0934 0 0
2:55 am 02:55 Clear 64 18 61 16.1 89 89 ESE 5 7 29.97 1015 10 16.0934 0 0
3:15 am 03:15 Partly Cloudy 64 17.9 61 16.1 89 89 SSE 5 7 29.97 1015 10 16.0934 0 0
3:35 am 03:35 Clear 64 17.7 61 16.1 90 90 SE 5 7 29.97 1015 10 16.0934 0 0
3:55 am 03:55 Clear 64 17.7 61 16.2 91 91 SE 6 9 29.97 1015 10 16.0934 0 0
4:15 am 04:15 Clear 64 17.6 61 16.1 91 91 SSE 7 11 29.97 1015 10 16.0934 0 0
4:35 am 04:35 Clear 64 17.7 61 16.2 91 91 SSE 6 9 29.97 1015 10 16.0934 0 0
4:55 am 04:55 Clear 64 17.5 61 16.1 92 92 SE 6 9 29.97 1015 10 16.0934 0 0
5:15 am 05:15 Clear 63 17.2 61 16 93 93 SE 7 11 29.94 1014 10 16.0934 0 0
5:35 am 05:35 Clear 63 17.1 61 16 93 93 SE 5 7 29.94 1014 10 16.0934 0 0
5:55 am 05:55 Clear 63 17 61 16 94 94 S 5 7 29.94 1014 10 16.0934 0 0
6:15 am 06:15 Clear 63 17.1 61 16 93 93 SE 5 7 29.94 1014 10 16.0934 0 0
6:35 am 06:35 Sunny 63 17 61 16 94 94 SE 5 7 29.94 1014 10 16.0934 0 0
6:55 am 06:55 Sunny 63 17 61 15.9 93 93 Calm 29.94 1014 10 16.0934 0 0
7:15 am 07:15 Sunny 63 17 61 16 94 94 SE 5 7 29.94 1014 10 16.0934 0 0
7:35 am 07:35 Mostly Cloudy 64 17.7 62 16.6 93 93 SE 3 6 29.94 1014 10 16.0934 0 0
7:55 am 07:55 Cloudy 64 18 62 16.6 92 92 SE 5 7 29.97 1015 10 16.0934 0 0
8:15 am 08:15 Partly Cloudy 65 18.1 62 16.8 92 92 SE 5 7 29.97 1015 10 16.0934 0 0
8:35 am 08:35 Sunny 66 18.8 64 17.5 92 92 SE 5 7 29.97 1015 10 16.0934 0 0
8:55 am 08:55 Partly Cloudy 67 19.7 64 17.8 89 89 SE 7 11 29.97 1015 10 16.0934 0 0
9:15 am 09:15 Partly Cloudy 69 20.3 64 18 87 87 ESE 6 9 29.94 1014 10 16.0934 0 0
9:35 am 09:35 Mostly Cloudy 69 20.8 65 18.2 85 85 ESE 5 7 29.94 1014 10 16.0934 0 0
9:55 am 09:55 Cloudy 69 20.6 65 18.4 87 87 ENE 10 17 29.94 1014 10 16.0934 0 0
10:15 am 10:15 Cloudy 70 21 65 18.5 86 86 E 10 17 29.94 1014 10 16.0934 0 0
10:35 am 10:35 Cloudy 70 20.9 64 18 84 84 E 13 20 29.94 1014 10 16.0934 0 0
10:55 am 10:55 Cloudy 71 21.5 65 18.3 82 82 E 12 19 29.94 1014 10 16.0934 0 0
11:15 am 11:15 Cloudy 70 21 64 17.7 82 82 E 13 20 29.94 1014 10 16.0934 0 0
11:35 am 11:35 Mostly Cloudy 71 21.4 64 17.8 80 80 E 13 20 29.94 1014 10 16.0934 0 0
11:55 am 11:55 Partly Cloudy 73 22.8 65 18.2 75 75 E 13 20 29.94 1014 10 16.0934 0 0
12:15 pm 12:15 Partly Cloudy 75 23.7 65 18.6 73 73 E 14 22 29.91 1013 10 16.0934 0 0
12:35 pm 12:35 Sunny 76 24.3 66 19.1 73 73 E 12 19 29.88 1012 10 16.0934 0 0
12:55 pm 12:55 Sunny 77 25 67 19.5 72 72 ESE 13 20 29.88 1012 10 16.0934 0 0
1:15 pm 13:15 Mostly Cloudy 78 25.6 67 19.5 69 69 SE 14 22 29.88 1012 10 16.0934 0 0
1:35 pm 13:35 Mostly Cloudy 80 26.9 67 19.6 64 64 SSE 14 22 29.85 1011 10 16.0934 0 0
1:55 pm 13:55 Partly Cloudy 81 27.3 68 19.8 64 64 SSE 16 26 29.83 1010 10 16.0934 0 0
2:15 pm 14:15 Sunny 82 27.9 67 19.6 61 61 SSE 13 20 29.83 1010 10 16.0934 0 0
2:35 pm 14:35 Sunny 83 28.1 65 18.6 56 56 SSE 15 24 29.83 1010 10 16.0934 0 0
2:55 pm 14:55 Sunny 83 28.5 65 18.4 54 54 S 13 20 29.83 1010 10 16.0934 0 0
3:15 pm 15:15 Sunny 84 29.1 64 18 51 51 S 15 24 29.83 1010 10 16.0934 0 0
3:35 pm 15:35 Sunny 84 29.1 64 17.6 50 50 SSE 16 26 29.83 1010 10 16.0934 0 0
3:55 pm 15:55 Sunny 84 29.1 64 17.8 51 51 SSE 14 22 29.8 1009 10 16.0934 0 0
4:15 pm 16:15 Sunny 85 29.3 64 17.5 49 49 S 12 19 29.8 1009 10 16.0934 0 0
4:35 pm 16:35 Sunny 85 29.6 64 17.8 49 49 SSE 12 19 29.8 1009 10 16.0934 0 0
4:55 pm 16:55 Sunny 85 29.5 63 17.4 48 48 S 14 22 29.8 1009 10 16.0934 0 0
5:15 pm 17:15 Sunny 85 29.5 64 17.5 48 48 SSE 14 22 29.8 1009 10 16.0934 0 0
5:35 pm 17:35 Sunny 85 29.5 64 17.5 48 48 SSE 14 22 29.8 1009 10 16.0934 0 0
5:55 pm 17:55 Sunny 85 29.5 64 18 50 50 SSE 12 19 29.8 1009 10 16.0934 0 0
6:15 pm 18:15 Sunny 85 29.5 64 17.8 49 49 SE 12 19 29.8 1009 10 16.0934 0 0
6:35 pm 18:35 Sunny 85 29.3 65 18.2 51 51 SSE 10 17 29.8 1009 10 16.0934 0 0
6:55 pm 18:55 Sunny 84 28.8 65 18.2 53 53 SSE 12 19 29.77 1008 10 16.0934 0 0
7:15 pm 19:15 Sunny 83 28.6 65 18.4 54 54 SSE 8 13 29.77 1008 10 16.0934 0 0
7:35 pm 19:35 Sunny 83 28.1 66 18.8 57 57 SSE 8 13 29.77 1008 10 16.0934 0 0
7:55 pm 19:55 Sunny 82 27.7 65 18.5 57 57 SE 7 11 29.77 1008 10 16.0934 0 0
8:15 pm 20:15 Sunny 80 26.9 65 18.6 60 60 SE 8 13 29.77 1008 10 16.0934 0 0
8:35 pm 20:35 Sunny 78 25.6 67 19.7 70 70 ESE 9 15 29.8 1009 10 16.0934 0 0
8:55 pm 20:55 Clear 76 24.4 68 20 77 77 ESE 8 13 29.8 1009 10 16.0934 0 0
9:15 pm 21:15 Clear 75 23.8 68 20.1 80 80 ESE 8 13 29.8 1009 10 16.0934 0 0
9:35 pm 21:35 Clear 73 23 68 20.2 84 84 ESE 9 15 29.83 1010 10 16.0934 0 0
9:55 pm 21:55 Clear 73 22.7 68 20 85 85 ESE 9 15 29.83 1010 10 16.0934 0 0
10:15 pm 22:15 Clear 73 22.5 68 19.8 85 85 ESE 10 17 29.83 1010 10 16.0934 0 0
10:35 pm 22:35 Clear 72 22.3 67 19.7 85 85 ESE 10 17 29.88 1012 10 16.0934 0 0
10:55 pm 22:55 Clear 72 22 67 19.7 87 87 SE 9 15 29.85 1011 10 16.0934 0 0
11:15 pm 23:15 Clear 71 21.9 67 19.7 87 87 SE 8 13 29.85 1011 10 16.0934 0 0
11:35 pm 23:35 Clear 71 21.7 67 19.7 88 88 SE 9 15 29.85 1011 10 16.0934 0 0
11:55 pm 23:55 Clear 71 21.6 67 19.7 89 89 SE 10 17 29.85 1011 10 16.0934 0 0

Powered by AerisWeather